Regional Weather Roundup
Issued by NWS

Home | Current Version | Previous Version | Text Only | Print | Product List | Glossary On
Versions: 1 2 3 4 5 6 7 8 9 10 11 12 13 14 15 16 17 18 19 20 21 22 23 24 25 26 27 28 29 30 31 32 33 34 35 36 37 38 39 40 41 42 43 44 45 46 47 48 49 50
000
ASHW40 PHFO 210212
RWRHI

WEATHER ROUNDUP FOR HAWAII
NATIONAL WEATHER SERVICE HONOLULU HI
400 PM HST FRI OCT 20 2017

THIS IS AN AUTOMATED REPORT THAT HAS NOT BEEN QUALITY CONTROLLED.

NOTE..."FAIR" INDICATES FEW OR NO CLOUDS BELOW 12,000 FEET WITH NO
SIGNIFICANT WEATHER AND/OR OBSTRUCTIONS TO VISIBILITY.

* - THESE SITES REPORT LIMITED FIELDS
# - BUOY DATA PROVIDED BY PACIFIC ISLANDS OCEAN OBSERVING SYSTEM.

HIZ001>004-210300-
KAUAI-NIIHAU-

CITY           SKY/WX    TMP DP  RH WIND       PRES   REMARKS
LIHUE APT      MOSUNNY   83  70  64 NE23      30.03S
PORT ALLEN*      N/A     84 N/A N/A NE24G32     N/A
POIPU*           N/A     82 N/A N/A NE10G24     N/A
PRINCEVILLE*     N/A     77 N/A N/A E10G18      N/A
KOKOLE POINT*  NOT AVBL
MOLOAA DAIRY*    N/A     81  70  69 E3G13       N/A
WAIMEA HTS*    NOT AVBL
PUU OPAE*      NOT AVBL
PUU LUA*       NOT AVBL
MAKAHA RIDGE*  NOT AVBL
$$

HIZ005>011-210300-
OAHU-

CITY           SKY/WX    TMP DP  RH WIND       PRES   REMARKS
HONOLULU       MOSUNNY   84  61  45 NE24G35   29.97F
KALAELOA       SUNNY     84  61  45 NE10G26   29.99S
KANEOHE MCB    MOSUNNY   83  68  60 NE16G22   29.98S
WHEELER FIELD  FAIR      80  64  57 NE18G26   30.00S
BELLOWS*       NOT AVBL
KAHUKU*        NOT AVBL
WHEELER*       NOT AVBL
WAIANAE HARBOR NOT AVBL
DILLINGHAM*      N/A     82  64  54 SW10G18     N/A
KAHUKU TRN*      N/A     79  66  65 W13G24      N/A
KAWAILOA*        N/A     75  66  73 E13G25      N/A
KII*             N/A     81  70  69 NE18G26     N/A
MAKUA RANGE*     N/A     75  54  46 SW17G35     N/A
OAHU FOREST NW NOT AVBL
SCHOFIELD BRK*   N/A     70  55  60 MISG        N/A
SCHOFIELD S*   NOT AVBL
WAIANAE VLY*   NOT AVBL
KUAOKALA*      NOT AVBL
HONOULIUULI*   NOT AVBL
MOKUOLOE IS*   NOT AVBL
PALEHUA*       NOT AVBL
WAIAWA PHB*    NOT AVBL
$$

HIZ012>013-210300-
MOLOKAI-

CITY           SKY/WX    TMP DP  RH WIND       PRES   REMARKS
MOLOKAI AIRPT  PTSUNNY   79  67  66 NE18G31   30.00R
KALAUPAPA      NOT AVBL
MAKAPULAPAI*   NOT AVBL
MOLOKAI 1*     NOT AVBL
PUU ALII*      NOT AVBL
$$

HIZ016-210300-
KAHOOLAWE-

CITY           SKY/WX    TMP DP  RH WIND       PRES   REMARKS
KAHOOLAWE*     NOT AVBL
HAKIOAWA*      NOT AVBL
HONOKANAIA*      N/A     84  68  58 NE16G31     N/A
KANELOA*         N/A     81  64  57 E23G41    30.02R
KEALIALALO*    NOT AVBL
LUA MAKIKA*    NOT AVBL
$$

HIZ014>015-210300-
LANAI-

CITY           SKY/WX    TMP DP  RH WIND       PRES   REMARKS
LANAI CITY     FAIR      77  65  66 NE24      30.01S
LANAI 1*       NOT AVBL
$$

HIZ017>028-210300-
MAUI-

CITY           SKY/WX    TMP DP  RH WIND       PRES   REMARKS
KAHULUI        MOSUNNY   83  71  67 NE22G33   29.98R
KAPALUA-W MAUI MOSUNNY   82  66  57 N21G32    29.97S
HANA AIRPORT   NOT AVBL
HANA*            N/A     81 N/A N/A NE8         N/A
HALEAKALA SUMM   N/A     48  19  32 E41         N/A
MAALAEA BAY*   NOT AVBL
HALEAKALA*     NOT AVBL
KAUPO GAP*     NOT AVBL
KULA 1*          N/A     64  56  75 NW3G10      N/A
$$

HIZ023>026-210300-
BIG ISLAND OF HAWAII COAST AND LOWER SLOPES-

CITY           SKY/WX    TMP DP  RH WIND       PRES   REMARKS
KAILUA KONA    MOSUNNY   84  66  54 S12       29.89S
HILO           MOSUNNY   81  69  67 N8        29.98S
HONOKAA*         N/A     75 N/A N/A VRB1        N/A
KAWAIHAE MWT*    N/A     84 N/A N/A W17G30      N/A
KAWAIHAE*      NOT AVBL
SOUTH POINT*     N/A     79 N/A N/A NE23G35     N/A
UPOLU AIRPORT* NOT AVBL
KAMUELA*         N/A     73  63  68 NE30      30.01R
HAKALAU*         N/A     63  48  59 NE3G10      N/A
KALOKO-HONOKO* NOT AVBL
PALI 2*          N/A     75  55  50 S25G41      N/A
KEALAKOMO*       N/A     86  63  45 N26G40      N/A
KAUPULEHU*     NOT AVBL
KAPAPALA*        N/A     86  54  32 NE12G29     N/A
LOWER KAHUKU*  NOT AVBL
PUHE CS*       NOT AVBL
PUHO CS*       NOT AVBL
PTA KEAMUKU*     N/A     72  59  64 NE25G40     N/A
WAIKOLOA*      NOT AVBL
$$

HIZ027>028-210300-
BIG ISLAND OF HAWAII INTERIOR AND SUMMMITS-

CITY           SKY/WX    TMP DP  RH WIND       PRES   REMARKS
BRADSHAW FIELD SUNNY     66  47  50 S17G26    30.26R
MK VISITOR CEN   N/A     59  10  14 E20         N/A
MAUNA KEA*       N/A      9 N/A N/A NE40        N/A  WCI -17
MAUNA LOA*     NOT AVBL
MAUNA LOA 1*   NOT AVBL
PTA KIPUKA*      N/A     73  50  43 S7G20       N/A
PTA RANGE 17*    N/A     72  45  37 NW15G30     N/A
PTA WEST*        N/A     73  59  60 W14G21      N/A
NENE CABIN*    NOT AVBL
AHUMOA*        NOT AVBL
PTA PORTABLE*  NOT AVBL
PUU MALI*        N/A    N/A N/A N/A E21G37      N/A
$$

HIC003-210300-
NORTHWEST ISLANDS-

CITY           SKY/WX    TMP DP  RH WIND       PRES   REMARKS
MIDWAY ISLAND  MOSUNNY   82  73  74 E7        30.15F
MIDWAY NOS*    NOT AVBL
FRENCH FRIGATE NOT AVBL
$$

PHZ110>124-180-210300-
BUOY REPORTS

STATION/POSITION TIME  TEMP    WIND        PRES    WAVE   SWELL
                       AIR SEA DIR/SP/G            HT/PER HT/DIR
                 (UTC) (F)     (DEG/KT/KT) (MB)    (FT/S) (FT/D)
BUOY 51001       0150   79 80   70/ 17/ 21 1018.7S  10/10   7/ 60
BUOY 51101       0150   79 80   70/ 17/ 21 1019.0R  10/ 9   8/ 90
BUOY 51100       NOT AVBL
BUOY 51002       0150   80 80   60/ 19/ 23 1012.1S  10/ 8   5/ 50
BUOY 51003       0150   81 81   50/ 16/ 19 1013.6F  10/ 9   8/ 70
BUOY 51004       0150   80 80   60/ 19/ 23 1011.5S  11/ 9   8/ 20
WAIMEA BAY#      0102      78                N/A     9/ 9   5/330
MOKAPU POINT#    0134      80                N/A    10/ 9   3/360
LANAI#           NOT AVBL
BARBERS PT 2#    NOT AVBL
PAUWELA#         NOT AVBL
HILO#            0157      80                N/A    10/ 9   5/ 30
KANEOHE BAY#     NOT AVBL
KANEOHE BAY 2#   NOT AVBL
HANALEI#         0152      80                N/A     9/ 8   3/330
KAHULUI HARBOR   0142   79 78              1015.2S
HONOLULU HARBOR  0148   81 80              1016.1S
PEARL HARBOR#    0130      80                N/A     3/ 5
KILO NALU        NOT AVBL
HILO HARBOR      0142   79 79              1014.7F
MOKUOLOE         0136   80 79   70/ 15/ 20 1016.3R
NAWILIWILI       0148   79                 1016.8R
WHOTS BUOY       NOT AVBL
BUOY 51028       NOT AVBL
$$

......................KEY........................................
  SKY/WX - SKY CONDITIONS/PRESENT WEATHER
  TMP    - TEMPERATURE IN FAHRENHEIT
  DWPT   - DEWPOINT IN FAHRENHEIT
  RH     - RELATIVE HUMIDITY IN PERCENT
  WIND   - DIRECTION AND SPEED /MPH FOR ISLANDS...KTS FOR BUOYS/
  PRES   - MEAN SEA LEVEL PRESSURE IN INCHES OF HG
  VSB    - VISIBILITY IN MILES
  HX     - HEAT INDEX
  WCI    - WIND CHILL INDEX
  VRB    - VARIABLE WIND DIRECTION
  N/A    - NOT AVAILABLE




USA.gov is the U.S. government's official web portal to all federal, state and local government web resources and services.